OVERFALLS Weather Reports


Display with metric or nautical units.
time (UTC)temp
F
wind
direction
speed
MPH
gust
MPH
rain 1hr
in
rain 24hr
in
rain mn
in
humidity
%
barometer
mb
20240223014540 46 133 3.0 10.0 0.00 0.00 0.00 71 1007.9
20240223013035 46 198 5.0 10.0 0.00 0.00 0.00 69 1008.3
20240223011538 46 182 6.0 13.0 0.00 0.00 0.00 69 1008.4
20240223010038 45 157 4.0 10.0 0.00 0.00 0.00 70 1008.6
20240223004545 45 197 4.0 9.0 0.00 0.00 0.00 71 1008.9
20240223003035 45 192 4.0 9.0 0.00 0.00 0.00 71 1009.3
20240223001546 44 173 3.0 10.0 0.00 0.00 0.00 72 1009.7
20240223000039 44 181 5.0 16.0 0.00 0.00 0.00 71 1009.7
20240222234534 44 173 6.0 14.0 0.00 0.00 0.00 71 1009.3
20240222233041 44 154 7.0 15.0 0.00 0.00 0.00 72 1009.2
20240222231533 44 143 6.0 15.0 0.00 0.00 0.00 73 1009.6
20240222230034 44 178 4.0 10.0 0.00 0.00 0.00 74 1009.7
20240222224538 44 194 6.0 13.0 0.00 0.00 0.00 75 1009.7
20240222223041 44 192 8.0 15.0 0.00 0.00 0.00 75 1009.2
20240222221546 44 145 7.0 17.0 0.00 0.00 0.00 76 1009.0
20240222220052 44 171 6.0 19.0 0.00 0.00 0.00 75 1009.6
20240222214535 44 218 6.0 16.0 0.00 0.00 0.00 75 1010.0
20240222213035 44 125 5.0 13.0 0.00 0.00 0.00 76 1010.1
20240222211540 44 141 5.0 13.0 0.00 0.00 0.00 77 1010.4
20240222210035 44 175 6.0 11.0 0.00 0.00 0.00 77 1010.8
20240222204539 44 177 4.0 12.0 0.00 0.00 0.00 77 1010.8
20240222203039 44 150 6.0 14.0 0.00 0.00 0.00 77 1010.8
20240222201540 44 140 4.0 18.0 0.00 0.00 0.00 77 1011.1
20240222200037 44 151 5.0 15.0 0.00 0.00 0.00 77 1011.2
20240222194537 44 182 6.0 13.0 0.00 0.00 0.00 77 1011.5
20240222193050 44 168 7.0 14.0 0.00 0.00 0.00 76 1011.8
20240222191533 44 194 5.0 14.0 0.00 0.00 0.00 77 1012.4
20240222190045 43 134 5.0 13.0 0.00 0.00 0.00 78 1012.9
20240222184534 43 149 6.0 13.0 0.00 0.00 0.00 76 1013.1
20240222183047 44 115 6.0 13.0 0.00 0.00 0.00 76 1013.4
20240222181541 45 107 6.0 13.0 0.00 0.00 0.00 74 1014.2
20240222180035 45 133 5.0 15.0 0.00 0.00 0.00 73 1014.5
20240222174537 46 186 4.0 13.0 0.00 0.00 0.00 72 1015.0
20240222173038 46 140 5.0 13.0 0.00 0.00 0.00 71 1015.4
20240222171533 45 149 6.0 12.0 0.00 0.00 0.00 72 1015.6
20240222170038 44 163 7.0 18.0 0.00 0.00 0.00 74 1016.3
20240222164534 45 162 5.0 16.0 0.00 0.00 0.00 73 1016.7
20240222163041 45 166 4.0 17.0 0.00 0.00 0.00 72 1017.2
20240222161542 44 178 5.0 15.0 0.00 0.00 0.00 73 1017.5
20240222160046 44 129 6.0 15.0 0.00 0.00 0.00 73 1017.7
20240222154543 43 121 6.0 12.0 0.00 0.00 0.00 74 1017.8
20240222153047 43 128 5.0 10.0 0.00 0.00 0.00 75 1018.2
20240222151540 41 180 10.0 14.0 0.00 0.00 0.00 75 1018.8
20240222150043 42 200 2.0 12.0 0.00 0.00 0.00 76 1018.9
20240222144539 41 163 5.0 12.0 0.00 0.00 0.00 75 1019.0
20240222143045 41 186 3.0 11.0 0.00 0.00 0.00 77 1019.1
20240222141544 41 194 5.0 11.0 0.00 0.00 0.00 78 1019.2
20240222140036 40 139 2.0 11.0 0.00 0.00 0.00 80 1019.4
20240222134535 39 0 2.0 8.0 0.00 0.00 0.00 82 1019.5
20240222133037 39 187 0.0 4.0 0.00 0.00 0.00 84 1019.7
20240222131542 37 189 1.0 4.0 0.00 0.00 0.00 87 1020.0
20240222130045 35 0 0.0 5.0 0.00 0.00 0.00 90 1020.0
20240222124539 32 134 0.0 1.0 0.00 0.00 0.00 90 1020.3
20240222123041 30 0 0.0 0.0 0.00 0.00 0.00 90 1020.4
20240222121542 29 0 0.0 1.0 0.00 0.00 0.00 90 1020.5
20240222120039 28 0 0.0 0.0 0.00 0.00 0.00 90 1020.9
20240222114545 28 0 0.0 0.0 0.00 0.00 0.00 89 1021.2
20240222113038 28 0 0.0 0.0 0.00 0.00 0.00 89 1021.3
20240222111537 28 0 0.0 0.0 0.00 0.00 0.00 89 1021.3
20240222110036 28 0 0.0 0.0 0.00 0.00 0.00 89 1021.4
20240222104540 28 0 0.0 0.0 0.00 0.00 0.00 89 1021.5
20240222103047 28 0 0.0 0.0 0.00 0.00 0.00 88 1021.6
20240222101551 28 0 0.0 1.0 0.00 0.00 0.00 88 1021.7
20240222100039 28 113 0.0 1.0 0.00 0.00 0.00 88 1021.7
20240222094536 28 0 0.0 0.0 0.00 0.00 0.00 88 1021.4
20240222093041 29 0 0.0 0.0 0.00 0.00 0.00 88 1021.5
20240222091542 29 0 0.0 0.0 0.00 0.00 0.00 87 1021.5
20240222090038 29 0 0.0 0.0 0.00 0.00 0.00 87 1021.7
20240222084536 29 0 0.0 0.0 0.00 0.00 0.00 87 1021.7
20240222083033 30 0 0.0 0.0 0.00 0.00 0.00 87 1021.9
20240222081537 30 0 0.0 0.0 0.00 0.00 0.00 87 1022.1
20240222080038 29 0 0.0 0.0 0.00 0.00 0.00 86 1022.3
20240222074536 30 0 0.0 0.0 0.00 0.00 0.00 86 1022.7
20240222073041 30 0 0.0 0.0 0.00 0.00 0.00 85 1022.7
20240222071541 30 0 0.0 0.0 0.00 0.00 0.00 85 1023.0
20240222070044 31 0 0.0 1.0 0.00 0.00 0.00 85 1023.1
20240222064551 31 0 0.0 0.0 0.00 0.00 0.00 84 1023.1
20240222063041 31 0 0.0 1.0 0.00 0.00 0.00 83 1023.7
20240222061549 31 0 0.0 0.0 0.00 0.00 0.00 82 1023.8
20240222060044 32 0 0.0 1.0 0.00 0.00 0.00 82 1023.9
20240222054539 32 0 0.0 0.0 0.00 0.00 0.00 81 1024.1
20240222053039 33 0 0.0 0.0 0.00 0.00 0.00 80 1024.2
20240222051546 34 0 0.0 0.0 0.00 0.00 0.00 80 1024.2
20240222050104 34 0 0.0 0.0 0.00 0.00 0.00 79 1024.2
20240222044545 35 0 0.0 1.0 0.00 0.00 0.00 79 1024.6
20240222043044 35 113 0.0 1.0 0.00 0.00 0.00 79 1024.8
20240222041542 36 0 0.0 0.0 0.00 0.00 0.00 77 1025.0
20240222040039 36 0 0.0 3.0 0.00 0.00 0.00 77 1024.9
20240222034543 36 106 4.0 7.0 0.00 0.00 0.00 77 1024.8
20240222033046 36 0 0.0 4.0 0.00 0.00 0.00 76 1025.0
20240222031542 37 108 3.0 7.0 0.00 0.00 0.00 75 1025.1
20240222030042 37 94 3.0 10.0 0.00 0.00 0.00 75 1025.4
20240222024539 37 96 5.0 10.0 0.00 0.00 0.00 75 1025.5
20240222023035 38 120 7.0 10.0 0.00 0.00 0.00 75 1026.1
20240222021537 37 112 4.0 7.0 0.00 0.00 0.00 75 1026.2
20240222020038 37 96 2.0 4.0 0.00 0.00 0.00 74 1026.1